| time (UTC) | temp C | wind direction | speed KPH | gust KPH | rain 1hr cm | rain 24hr cm | rain mn cm | humidity % | barometer mb |
| 20260505140138 | 29 | 222 | 3.2 | 6.4 | 0.00 | 0.00 | 0.00 | 26 | 995.7 |
| 20260505140136 | 29 | 222 | 3.2 | 6.4 | 0.00 | 0.00 | 0.00 | 26 | 995.7 |
| 20260505130129 | 29 | 90 | 4.8 | 11.3 | 0.00 | 0.00 | 0.00 | 26 | 995.6 |
| 20260505124630 | 27 | 315 | 6.4 | 12.9 | 0.00 | 0.00 | 0.00 | 36 | 997.0 |
| 20260505123131 | 28 | 45 | 4.8 | 11.3 | 0.00 | 0.00 | 0.00 | 34 | 996.8 |
| 20260505121631 | 28 | 90 | 3.2 | 8.0 | 0.00 | 0.00 | 0.00 | ||
| 20260505120129 | 28 | 90 | 3.2 | 6.4 | 0.00 | 0.00 | 0.00 | 31 | 996.8 |
| 20260505114627 | 28 | 135 | 4.8 | 9.7 | 0.00 | 0.00 | 0.00 | 34 | 996.8 |
| 20260505113126 | 28 | 270 | 3.2 | 11.3 | 0.00 | 0.00 | 0.00 | 37 | 996.9 |
| 20260505111627 | 27 | 180 | 4.8 | 12.9 | 0.00 | 0.00 | 0.00 | 39 | 997.1 |
| 20260505110125 | 28 | 90 | 6.4 | 12.9 | 0.00 | 0.00 | 0.00 | 33 | 996.8 |
| 20260505101622 | 25 | 180 | 4.8 | 12.9 | 0.00 | 0.00 | 0.00 | 39 | 998.2 |
| 20260505100121 | 26 | 90 | 4.8 | 9.7 | 0.00 | 0.00 | 0.00 | 37 | 998.0 |
| 20260505094619 | 25 | 222 | 4.8 | 12.9 | 0.00 | 0.00 | 0.00 | 39 | 998.3 |
| 20260505093115 | 26 | 135 | 1.6 | 6.4 | 0.00 | 0.00 | 0.00 | 38 | 998.2 |
| 20260505091613 | 25 | 270 | 3.2 | 6.4 | 0.00 | 0.00 | 0.00 | 41 | 998.2 |
| 20260505090113 | -17 | 270 | 6.4 | 0.0 | 0.00 | 0.00 | 0.00 | 43 | 999.3 |
| 20260505090111 | 25 | 270 | 6.4 | 12.9 | 0.00 | 0.00 | 0.00 | 43 | 999.3 |
| 20260505084610 | 26 | 90 | 1.6 | 6.4 | 0.00 | 0.00 | 0.00 | 40 | 999.2 |
| 20260505083107 | 23 | 222 | 3.2 | 6.4 | 0.00 | 0.00 | 0.00 | 47 | 999.5 |
| 20260505080108 | 24 | 135 | 1.6 | 4.8 | 0.00 | 0.00 | 0.00 | 45 | 999.4 |
| 20260505074607 | 22 | 180 | 1.6 | 6.4 | 0.00 | 0.00 | 0.00 | 50 | 999.5 |
| 20260505074605 | -17 | 180 | 1.6 | 0.0 | 0.00 | 0.00 | 0.00 | 50 | 999.5 |
| 20260505073105 | 23 | 315 | 4.8 | 11.3 | 0.00 | 0.00 | 0.00 | 51 | 999.5 |
| 20260505071603 | 22 | 135 | 6.4 | 12.9 | 0.00 | 0.00 | 0.00 | 51 | 999.5 |
| 20260505070103 | 22 | 90 | 4.8 | 6.4 | 0.00 | 0.00 | 0.00 | 53 | 999.6 |
| 20260505064601 | 21 | 315 | 6.4 | 12.9 | 0.00 | 0.00 | 0.00 | 57 | 999.8 |
| 20260505063101 | 20 | 0 | 6.4 | 12.9 | 0.00 | 0.00 | 0.00 | 59 | 1000.9 |
| 20260505061559 | 18 | 0 | 6.4 | 14.5 | 0.00 | 0.00 | 0.00 | 62 | 1001.1 |
| 20260505054556 | 15 | 180 | 0.0 | 0.0 | 0.00 | 0.00 | 0.00 | 78 | 1001.5 |
| 20260505053053 | 15 | 180 | 0.0 | 0.0 | 0.00 | 0.00 | 0.00 | 78 | 1001.5 |
| 20260505051553 | 13 | 180 | 0.0 | 0.0 | 0.00 | 0.00 | 0.00 | 82 | 1001.7 |
| 20260505041548 | 13 | 180 | 0.0 | 0.0 | 0.00 | 0.00 | 0.00 | 80 | 1001.7 |
| 20260505040046 | 13 | 180 | 0.0 | 0.0 | 0.00 | 0.00 | 0.00 | 78 | 1001.7 |
| 20260505034546 | 13 | 180 | 1.6 | 3.2 | 0.00 | 0.00 | 0.00 | 77 | 1001.6 |
| 20260505033046 | 13 | 315 | 1.6 | 4.8 | 0.00 | 0.00 | 0.00 | 78 | 1001.7 |
| 20260505031543 | 13 | 315 | 0.0 | 0.0 | 0.00 | 0.00 | 0.00 | 79 | 1001.7 |
| 20260505030043 | 13 | 90 | 1.6 | 6.4 | 0.00 | 0.00 | 0.00 | 76 | 1002.7 |
| 20260505024543 | 13 | 90 | 1.6 | 6.4 | 0.00 | 0.00 | 0.00 | 76 | 1002.6 |
| 20260505023041 | 15 | 180 | 0.0 | 0.0 | 0.00 | 0.00 | 0.00 | 70 | 1001.5 |
| 20260505021539 | 15 | 222 | 4.8 | 12.9 | 0.00 | 0.00 | 0.00 | 69 | 1002.5 |
| 20260505020036 | 15 | 180 | 1.6 | 4.8 | 0.00 | 0.00 | 0.00 | 74 | 1002.6 |
| 20260505014536 | 15 | 222 | 0.0 | 0.0 | 0.00 | 0.00 | 0.00 | 70 | 1002.5 |
| 20260505011535 | 15 | 270 | 1.6 | 6.4 | 0.00 | 0.00 | 0.00 | 70 | 1002.5 |
| 20260505010032 | 15 | 180 | 0.0 | 0.0 | 0.00 | 0.00 | 0.00 | 70 | 1002.6 |
| 20260505004530 | 15 | 180 | 0.0 | 1.6 | 0.00 | 0.00 | 0.00 | 67 | 1002.5 |
| 20260505003027 | 16 | 222 | 1.6 | 8.0 | 0.00 | 0.00 | 0.00 | 64 | 1002.4 |
| 20260505001526 | 16 | 0 | 8.0 | 17.7 | 0.00 | 0.00 | 0.00 | 65 | 1002.4 |
| 20260505000026 | 16 | 315 | 4.8 | 12.9 | 0.00 | 0.00 | 0.00 | 65 | 1002.4 |
| 20260504234525 | 16 | 0 | 4.8 | 12.9 | 0.00 | 0.00 | 0.00 | ||
| 20260504233021 | 16 | 315 | 4.8 | 11.3 | 0.00 | 0.00 | 0.00 | 62 | 1003.4 |
| 20260504231519 | 16 | 45 | 9.7 | 17.7 | 0.00 | 0.00 | 0.00 | 61 | 1003.4 |
| 20260504230017 | 16 | 315 | 9.7 | 14.5 | 0.00 | 0.00 | 0.00 | 61 | 1003.4 |
| 20260504224519 | 17 | 222 | 6.4 | 11.3 | 0.00 | 0.00 | 0.00 | 60 | 1003.3 |
| 20260504223018 | 17 | 315 | 6.4 | 16.1 | 0.00 | 0.00 | 0.00 | 61 | 1003.3 |
| 20260504221518 | 17 | 315 | 6.4 | 11.3 | 0.00 | 0.00 | 0.00 | 61 | 1003.3 |
| 20260504221516 | 17 | 315 | 6.4 | 11.3 | 0.00 | 0.00 | 0.00 | 61 | 1003.3 |
| 20260504213226 | 17 | 222 | 1.6 | 1.6 | 0.00 | 0.00 | 0.00 | 59 | 1003.3 |
| 20260504210222 | 17 | 270 | 4.8 | 6.4 | 0.00 | 0.00 | 0.00 | 60 | 1003.3 |
| 20260504204720 | 17 | 222 | 0.0 | 0.0 | 0.00 | 0.00 | 0.00 | 57 | 1004.3 |
| 20260504203220 | 18 | 315 | 3.2 | 8.0 | 0.00 | 0.00 | 0.00 | 51 | 1003.1 |
| 20260504201718 | 18 | 0 | 3.2 | 8.0 | 0.00 | 0.00 | 0.00 | 51 | 1003.1 |
| 20260504200218 | 18 | 270 | 6.4 | 11.3 | 0.00 | 0.00 | 0.00 | 49 | 1004.2 |
| 20260504194715 | 18 | 315 | 4.8 | 6.4 | 0.00 | 0.00 | 0.00 | 51 | 1004.2 |
| 20260504193215 | 17 | 180 | 4.8 | 9.7 | 0.00 | 0.00 | 0.00 | 55 | 1004.3 |
| 20260504191714 | 17 | 0 | 4.8 | 6.4 | 0.00 | 0.00 | 0.00 | 53 | 1003.3 |
| 20260504190214 | 17 | 315 | 3.2 | 6.4 | 0.00 | 0.00 | 0.00 | 56 | 1004.4 |
| 20260504184711 | 16 | 315 | 1.6 | 3.2 | 0.00 | 0.00 | 0.00 | 1004.4 | |
| 20260504183211 | 17 | 315 | 3.2 | 4.8 | 0.00 | 0.00 | 0.00 | 61 | 1003.3 |
| 20260504181708 | 17 | 270 | 1.6 | 3.2 | 0.00 | 0.00 | 0.00 | 62 | 1003.2 |
| 20260504180207 | 18 | 270 | 0.0 | 0.0 | 0.00 | 0.00 | 0.00 | 59 | 1003.1 |
| 20260504174707 | 20 | 270 | 0.0 | 0.0 | 0.00 | 0.00 | 0.00 | 55 | 1002.9 |
| 20260504173206 | 22 | 270 | 1.6 | 3.2 | 0.00 | 0.00 | 0.00 | 47 | 1002.6 |
| 20260504171703 | 24 | 270 | 1.6 | 1.6 | 0.00 | 0.00 | 0.00 | 40 | 1002.4 |
| 20260504170202 | 25 | 270 | 1.6 | 3.2 | 0.00 | 0.00 | 0.00 | 31 | 1002.3 |
| 20260504150151 | 25 | 222 | 3.2 | 8.0 | 0.00 | 0.00 | 0.00 | 28 | 1003.4 |